Grand Canyon, AZ

12:15 PM MST on April 30, 2017 (GMT -0700)
Grand Canyon National Park

Weather History for KGCN - April, 2014

Change the Weather History Date:

Wednesday, April 2, 2014

  Actual Average Record
Temperature  
Mean Temperature 34 °F -  
Max Temperature 41 °F 51 °F 72 °F (2011)
Min Temperature 26 °F 22 °F 15 °F (1999)
Degree Days  
Heating Degree Days 32    
Moisture  
Dew Point 25 °F    
Average Humidity 81    
Maximum Humidity 100    
Minimum Humidity 33    
Precipitation  
Precipitation 0.10 in - - ()
Sea Level Pressure  
Sea Level Pressure 29.83 in    
Wind  
Wind Speed 10 mph (WSW)    
Max Wind Speed 17 mph    
Max Gust Speed 25 mph    
Visibility 4 miles    
Events Fog , Rain , Snow    
Averages and records for this station are not official NWS values.
T = Trace of Precipitation, MM = Missing Value Source: NWS Daily Summary

Daily Weather History Graph

Daily Weather History Graph

Search for Another Location

Airport or City:

Trip Planner

Search our weather history database for the weather conditions in past years. The results will help you decide how hot, cold, wet, or windy it might be!

Date:

Astronomy

Apr. 02, 2014 Rise Set
Actual Time 6:13 AM MST 6:51 PM MST
Civil Twilight 5:47 AM MST 7:17 PM MST
Nautical Twilight 5:17 AM MST 7:47 PM MST
Astronomical Twilight 4:46 AM MST 8:18 PM MST
Moon 8:05 AM MST (4/2) 10:12 PM MST (4/2)
Length of Visible Light 13h 29m
Length of Day
12h 37m
Waxing Crescent, 11% of the Moon is Illuminated
Apr 2
Waxing Crescent
Apr 7
First Quarter
Apr 15
Full
Apr 22
Last Quarter
Apr 28
New

Hourly Weather History & Observations

Time (MST) Temp. Windchill Dew Point Humidity Pressure Visibility Wind Dir Wind Speed Gust Speed Precip Events Conditions
12:54 AM 36.0 °F 26.3 °F 24.1 °F 62% 29.70 in 10.0 mi SSW 16.1 mph 21.9 mph N/A   Mostly Cloudy
1:54 AM 33.1 °F 23.9 °F 23.0 °F 66% 29.71 in 10.0 mi SW 12.7 mph 21.9 mph N/A   Partly Cloudy
2:54 AM 30.9 °F 23.5 °F 21.9 °F 69% 29.70 in 10.0 mi WSW 8.1 mph - N/A   Scattered Clouds
3:54 AM 30.0 °F 21.7 °F 19.9 °F 66% 29.71 in 10.0 mi SW 9.2 mph - N/A   Clear
5:54 AM 28.0 °F 20.8 °F 19.9 °F 72% 29.74 in 10.0 mi SW 6.9 mph - N/A   Mostly Cloudy
6:54 AM 28.9 °F 20.4 °F 21.0 °F 72% 29.76 in 10.0 mi SW 9.2 mph - N/A   Mostly Cloudy
7:54 AM 34.0 °F 24.6 °F 21.9 °F 61% 29.74 in 10.0 mi SSW 13.8 mph - N/A   Scattered Clouds
8:54 AM 35.1 °F 26.9 °F 21.0 °F 57% 29.74 in 10.0 mi SW 11.5 mph - N/A   Overcast
9:54 AM 37.9 °F 30.5 °F 18.0 °F 45% 29.74 in 10.0 mi SSW 11.5 mph 23.0 mph N/A   Scattered Clouds
10:54 AM 41.0 °F 33.9 °F 14.0 °F 33% 29.74 in 10.0 mi WSW 12.7 mph 23.0 mph N/A   Mostly Cloudy
11:54 AM 41.0 °F 33.1 °F 15.1 °F 35% 29.73 in 10.0 mi West 15.0 mph 21.9 mph N/A   Overcast
12:54 PM 37.0 °F 29.8 °F 21.0 °F 52% 29.75 in 9.0 mi SW 10.4 mph 19.6 mph N/A   Overcast
1:32 PM 34.0 °F 23.4 °F 25.0 °F 70% 29.82 in 1.8 mi SSW 17.3 mph 23.0 mph 0.00 in Snow Light Snow
1:34 PM 33.1 °F 22.6 °F 26.1 °F 75% 29.82 in 1.2 mi SW 16.1 mph 23.0 mph 0.00 in Snow Light Snow
1:41 PM 35.1 °F 26.4 °F 27.0 °F 72% 29.82 in 2.0 mi SW 12.7 mph 19.6 mph 0.00 in Snow Light Snow
1:50 PM 35.6 °F 27.1 °F 24.8 °F 65% 29.82 in 4.0 mi WSW 12.7 mph 23.0 mph 0.00 in Snow Light Snow
1:54 PM 37.0 °F 27.7 °F 25.0 °F 62% 29.77 in 7.0 mi SW 16.1 mph 21.9 mph 0.00 in Snow Light Snow
2:10 PM 36.0 °F 26.0 °F 28.0 °F 73% 29.81 in 1.5 mi WSW 17.3 mph 24.2 mph 0.00 in Snow Light Snow
2:17 PM 35.1 °F 25.9 °F 30.0 °F 82% 29.81 in 1.2 mi WSW 13.8 mph 23.0 mph 0.00 in Snow Light Snow
2:20 PM 36.0 °F 28.0 °F 28.9 °F 76% 29.81 in 2.0 mi WSW 11.5 mph - 0.00 in Snow Light Snow
2:27 PM 36.0 °F 26.7 °F 27.0 °F 70% 29.81 in 1.2 mi WSW 15.0 mph 20.7 mph 0.00 in Rain Light Rain
2:54 PM 32.0 °F 21.6 °F 28.0 °F 85% 29.79 in 1.2 mi SW 15.0 mph 25.3 mph 0.00 in Snow Light Snow
3:51 PM 33.8 °F 27.0 °F 26.6 °F 75% 29.82 in 1.5 mi West 8.1 mph - 0.00 in Snow Light Snow
3:54 PM 34.0 °F 26.6 °F 27.0 °F 75% 29.80 in 3.0 mi West 9.2 mph - 0.00 in Snow Light Snow
4:06 PM 32.0 °F 23.6 °F 28.0 °F 85% 29.83 in 2.5 mi WSW 10.4 mph 23.0 mph 0.00 in Snow Light Snow
4:17 PM 30.0 °F 20.0 °F 28.0 °F 92% 29.83 in 0.2 mi WSW 12.7 mph 20.7 mph 0.00 in Fog , Snow Snow
4:54 PM 28.0 °F 19.3 °F 26.1 °F 92% 29.86 in 0.2 mi West 9.2 mph 16.1 mph 0.02 in Fog , Snow Snow
5:41 PM 28.9 °F 21.9 °F 27.0 °F 92% 29.85 in 0.5 mi Variable 6.9 mph - 0.01 in Fog , Snow Light Snow
5:54 PM 28.9 °F 20.4 °F 27.0 °F 92% 29.86 in 0.5 mi WSW 9.2 mph - 0.01 in Fog , Snow Light Snow
6:03 PM 28.9 °F 22.8 °F 27.0 °F 92% 29.85 in 1.5 mi WSW 5.8 mph - 0.00 in Snow Light Snow
6:10 PM 28.9 °F 21.1 °F 27.0 °F 92% 29.85 in 1.5 mi SW 8.1 mph - 0.00 in Snow Light Snow
6:14 PM 28.9 °F 20.4 °F 27.0 °F 92% 29.85 in 1.2 mi SW 9.2 mph - 0.00 in Snow Light Snow
6:35 PM 28.0 °F 19.3 °F 27.0 °F 96% 29.85 in 2.0 mi SW 9.2 mph - 0.00 in Snow Light Snow
6:52 PM 28.4 °F 20.4 °F 26.6 °F 93% 29.84 in 3.0 mi SW 8.1 mph - 0.00 in Snow Light Snow
6:54 PM 28.0 °F 18.6 °F 27.0 °F 96% 29.85 in 3.0 mi SW 10.4 mph - 0.00 in Snow Light Snow
7:54 PM 28.0 °F 21.7 °F 26.1 °F 92% 29.86 in 7.0 mi WSW 5.8 mph - 0.00 in Snow Light Snow
8:04 PM 28.0 °F 22.8 °F 27.0 °F 96% 29.88 in 4.0 mi WSW 4.6 mph - 0.00 in Snow Light Snow
8:09 PM 28.0 °F 24.2 °F 27.0 °F 96% 29.88 in 2.5 mi West 3.5 mph - 0.00 in Snow Light Snow
8:13 PM 28.0 °F 22.8 °F 27.0 °F 96% 29.88 in 1.5 mi WSW 4.6 mph - 0.00 in Snow Light Snow
8:20 PM 28.0 °F - 27.0 °F 96% 29.88 in 1.0 mi Calm Calm - 0.01 in Snow Light Snow
8:33 PM 28.0 °F 21.7 °F 26.1 °F 92% 29.89 in 1.8 mi WNW 5.8 mph - 0.01 in Snow Light Snow
8:49 PM 26.6 °F 21.2 °F 26.6 °F 100% 29.90 in 2.5 mi Variable 4.6 mph - 0.01 in Snow Light Snow
9:10 PM 28.0 °F - 26.1 °F 92% 29.90 in 3.0 mi Calm Calm - 0.00 in Snow Light Snow
9:15 PM 28.0 °F - 26.1 °F 92% 29.90 in 1.8 mi Calm Calm - 0.00 in Snow Light Snow
9:24 PM 28.0 °F 24.2 °F 26.1 °F 92% 29.90 in 1.0 mi West 3.5 mph - 0.00 in Snow Light Snow
9:31 PM 28.0 °F - 27.0 °F 96% 29.90 in 0.8 mi Calm Calm - 0.01 in Snow Light Snow
9:54 PM 28.0 °F 24.2 °F 26.1 °F 92% 29.88 in 0.8 mi West 3.5 mph - 0.03 in Snow Light Snow
10:23 PM 28.0 °F - 27.0 °F 96% 29.91 in 1.0 mi Calm Calm - 0.02 in Snow Light Snow
10:42 PM 28.0 °F - 27.0 °F 96% 29.91 in 2.0 mi Calm Calm - 0.03 in Snow Light Snow
10:54 PM 28.0 °F - 26.1 °F 92% 29.87 in 3.0 mi Calm Calm - 0.03 in Snow Light Snow
11:08 PM 28.0 °F - 26.1 °F 92% 29.92 in 1.8 mi Calm Calm - 0.00 in Snow Light Snow
11:19 PM 28.0 °F - 27.0 °F 96% 29.92 in 1.2 mi Calm Calm - 0.00 in Snow Light Snow
11:36 PM 28.0 °F 24.2 °F 26.1 °F 92% 29.92 in 1.5 mi WSW 3.5 mph - 0.01 in Snow Light Snow
11:54 PM 27.0 °F 21.6 °F 26.1 °F 96% 29.89 in 2.5 mi West 4.6 mph - 0.01 in Snow Light Snow